• Em Portugal
  • Lista de países
  • Para 7 dias
  • Temperatura da água
  • Mapas de satélite
  • Mapa do tempo
  • Widgets de tempo
  • user-avatar
    Iniciar Sessão

    Previsão horária em Druskininkai

    Hoje, 24 Fevereiro, Sábado

    Tempo Temperatura Precipitação Vento Pressão Humidade
    00:00 -12°C° 0,1 mm 2 m/s 757 mmHg 87%
    01:00 -12°C° 0,1 mm 2 m/s 757 mmHg 87%
    02:00 -12°C° 0 mm 2 m/s 757 mmHg 87%
    03:00 -13°C° 0,1 mm 3 m/s 757 mmHg 86%
    04:00 -14°C° 0,1 mm 3 m/s 757 mmHg 86%
    05:00 -16°C° 0,1 mm 4 m/s 757 mmHg 85%
    06:00 -16°C° 0 mm 4 m/s 758 mmHg 84%
    07:00 -17°C° 0 mm 4 m/s 758 mmHg 84%
    08:00 -17°C° 0 mm 4 m/s 759 mmHg 84%
    09:00 -16°C° 0 mm 4 m/s 759 mmHg 81%
    10:00 -17°C° 0 mm 5 m/s 760 mmHg 78%
    11:00 -15°C° 0 mm 5 m/s 760 mmHg 75%
    12:00 -14°C° 0 mm 5 m/s 760 mmHg 73%
    13:00 -14°C° 0 mm 5 m/s 760 mmHg 71%
    14:00 -13°C° 0 mm 5 m/s 760 mmHg 70%
    15:00 -13°C° 0 mm 5 m/s 760 mmHg 71%
    16:00 -13°C° 0 mm 5 m/s 761 mmHg 73%
    17:00 -14°C° 0 mm 5 m/s 761 mmHg 74%
    18:00 -14°C° 0 mm 5 m/s 761 mmHg 76%
    19:00 -15°C° 0 mm 5 m/s 761 mmHg 78%
    20:00 -15°C° 0 mm 5 m/s 762 mmHg 80%
    21:00 -15°C° 0 mm 4 m/s 762 mmHg 81%
    22:00 -16°C° 0 mm 4 m/s 762 mmHg 83%
    23:00 -16°C° 0 mm 4 m/s 762 mmHg 85%

    Amanhã, 25 Fevereiro, Domingo

    Tempo Temperatura Precipitação Vento Pressão Humidade
    00:00 -16°C° 0 mm 3 m/s 762 mmHg 86%
    01:00 -16°C° 0 mm 3 m/s 763 mmHg 88%
    02:00 -16°C° 0 mm 3 m/s 763 mmHg 89%
    03:00 -17°C° 0 mm 3 m/s 763 mmHg 90%
    04:00 -17°C° 0 mm 3 m/s 763 mmHg 91%
    05:00 -16°C° 0 mm 2 m/s 763 mmHg 92%
    06:00 -17°C° 0 mm 2 m/s 763 mmHg 91%
    07:00 -18°C° 0 mm 3 m/s 763 mmHg 91%
    08:00 -18°C° 0 mm 3 m/s 763 mmHg 91%
    09:00 -17°C° 0 mm 3 m/s 763 mmHg 87%
    10:00 -16°C° 0 mm 3 m/s 763 mmHg 82%
    11:00 -15°C° 0 mm 3 m/s 763 mmHg 78%
    12:00 -14°C° 0 mm 3 m/s 763 mmHg 75%
    13:00 -14°C° 0 mm 3 m/s 763 mmHg 73%
    14:00 -13°C° 0 mm 3 m/s 762 mmHg 70%
    15:00 -14°C° 0 mm 3 m/s 762 mmHg 72%
    16:00 -14°C° 0 mm 3 m/s 762 mmHg 73%
    17:00 -14°C° 0 mm 3 m/s 762 mmHg 75%
    18:00 -15°C° 0 mm 3 m/s 762 mmHg 77%
    19:00 -15°C° 0 mm 3 m/s 762 mmHg 80%
    20:00 -16°C° 0 mm 3 m/s 762 mmHg 82%
    21:00 -16°C° 0 mm 3 m/s 763 mmHg 83%
    22:00 -17°C° 0 mm 3 m/s 763 mmHg 84%
    23:00 -16°C° 0 mm 2 m/s 763 mmHg 85%

    Depois de amanhã, 26 Fevereiro, Segunda-feira

    Tempo Temperatura Precipitação Vento Pressão Humidade
    00:00 -16°C° 0 mm 2 m/s 763 mmHg 86%
    01:00 -16°C° 0 mm 2 m/s 762 mmHg 87%
    02:00 -16°C° 0 mm 2 m/s 762 mmHg 88%
    03:00 -16°C° 0 mm 2 m/s 762 mmHg 89%
    04:00 -17°C° 0 mm 2 m/s 762 mmHg 90%
    05:00 -17°C° 0 mm 2 m/s 762 mmHg 91%
    06:00 -17°C° 0 mm 2 m/s 762 mmHg 91%
    07:00 -16°C° 0 mm 2 m/s 762 mmHg 92%
    08:00 -16°C° 0 mm 2 m/s 762 mmHg 92%
    09:00 -15°C° 0 mm 2 m/s 762 mmHg 87%
    10:00 -14°C° 0 mm 2 m/s 761 mmHg 82%
    11:00 -13°C° 0 mm 2 m/s 761 mmHg 76%
    12:00 -12°C° 0 mm 2 m/s 761 mmHg 74%
    13:00 -12°C° 0 mm 2 m/s 761 mmHg 71%
    14:00 -10°C° 0 mm 2 m/s 760 mmHg 68%
    15:00 -10°C° 0 mm 2 m/s 760 mmHg 69%
    16:00 -10°C° 0 mm 2 m/s 760 mmHg 71%
    17:00 -10°C° 0 mm 2 m/s 760 mmHg 72%
    18:00 -12°C° 0 mm 2 m/s 760 mmHg 77%
    19:00 -10°C° 0 mm 1 m/s 760 mmHg 82%
    20:00 -11°C° 0 mm 1 m/s 760 mmHg 87%
    21:00 -11°C° 0 mm 1 m/s 760 mmHg 88%
    22:00 -12°C° 0 mm 1 m/s 760 mmHg 90%
    23:00 -12°C° 0 mm 1 m/s 760 mmHg 91%

    27 Fevereiro, Terça-feira

    Tempo Temperatura Precipitação Vento Pressão Humidade
    00:00 -12°C° 0 mm 1 m/s 760 mmHg 92%
    01:00 -12°C° 0 mm 1 m/s 760 mmHg 92%
    02:00 -12°C° 0 mm 1 m/s 760 mmHg 92%
    03:00 -13°C° 0 mm 1 m/s 760 mmHg 93%
    04:00 -13°C° 0 mm 1 m/s 760 mmHg 94%
    05:00 -15°C° 0 mm 2 m/s 759 mmHg 95%
    06:00 -16°C° 0 mm 2 m/s 760 mmHg 93%
    07:00 -16°C° 0 mm 2 m/s 760 mmHg 92%
    08:00 -17°C° 0 mm 3 m/s 760 mmHg 91%
    09:00 -16°C° 0 mm 3 m/s 761 mmHg 86%
    10:00 -16°C° 0 mm 3 m/s 761 mmHg 81%
    11:00 -16°C° 0 mm 4 m/s 761 mmHg 76%
    12:00 -16°C° 0 mm 4 m/s 761 mmHg 73%
    13:00 -15°C° 0 mm 4 m/s 761 mmHg 70%
    14:00 -15°C° 0 mm 4 m/s 761 mmHg 68%
    15:00 -15°C° 0 mm 4 m/s 761 mmHg 69%
    16:00 -15°C° 0 mm 5 m/s 761 mmHg 71%
    17:00 -17°C° 0 mm 5 m/s 761 mmHg 73%
    18:00 -18°C° 0 mm 5 m/s 762 mmHg 75%
    19:00 -18°C° 0 mm 5 m/s 762 mmHg 78%
    20:00 -19°C° 0 mm 5 m/s 762 mmHg 80%
    21:00 -19°C° 0 mm 5 m/s 762 mmHg 81%
    22:00 -20°C° 0 mm 5 m/s 762 mmHg 82%
    23:00 -20°C° 0 mm 5 m/s 763 mmHg 82%

    28 Fevereiro, Quarta-feira

    Tempo Temperatura Precipitação Vento Pressão Humidade
    00:00 -20°C° 0 mm 5 m/s 762 mmHg 83%
    01:00 -21°C° 0 mm 5 m/s 762 mmHg 83%
    02:00 -21°C° 0 mm 5 m/s 762 mmHg 84%
    03:00 -21°C° 0 mm 5 m/s 762 mmHg 84%
    04:00 -21°C° 0 mm 5 m/s 762 mmHg 84%
    05:00 -21°C° 0 mm 5 m/s 762 mmHg 84%
    06:00 -21°C° 0 mm 5 m/s 761 mmHg 84%
    07:00 -21°C° 0 mm 5 m/s 761 mmHg 84%
    08:00 -21°C° 0 mm 5 m/s 761 mmHg 83%
    09:00 -20°C° 0,1 mm 5 m/s 761 mmHg 82%
    10:00 -19°C° 0,1 mm 5 m/s 761 mmHg 81%
    11:00 -19°C° 0,1 mm 5 m/s 761 mmHg 79%
    12:00 -18°C° 0,1 mm 5 m/s 760 mmHg 79%
    13:00 -18°C° 0,1 mm 5 m/s 760 mmHg 78%
    14:00 -17°C° 0,1 mm 5 m/s 760 mmHg 78%
    15:00 -17°C° 0,1 mm 5 m/s 759 mmHg 79%
    16:00 -17°C° 0,1 mm 5 m/s 759 mmHg 80%
    17:00 -17°C° 0,1 mm 5 m/s 759 mmHg 81%
    18:00 -17°C° 0,1 mm 5 m/s 759 mmHg 83%
    19:00 -16°C° 0,1 mm 4 m/s 759 mmHg 84%
    20:00 -16°C° 0,1 mm 4 m/s 759 mmHg 86%
    21:00 -16°C° 0,1 mm 4 m/s 758 mmHg 87%
    22:00 -16°C° 0,1 mm 4 m/s 758 mmHg 88%
    23:00 -16°C° 0,1 mm 4 m/s 758 mmHg 88%

    1 Março, Quinta-feira

    Tempo Temperatura Precipitação Vento Pressão Humidade
    00:00 -15°C° 0,1 mm 3 m/s 758 mmHg 89%
    01:00 -16°C° 0,1 mm 3 m/s 758 mmHg 89%
    02:00 -16°C° 0,1 mm 3 m/s 758 mmHg 89%
    03:00 -16°C° 0,1 mm 3 m/s 757 mmHg 90%
    04:00 -16°C° 0,1 mm 3 m/s 757 mmHg 90%
    05:00 -16°C° 0,1 mm 3 m/s 757 mmHg 90%
    06:00 -15°C° 0 mm 2 m/s 757 mmHg 91%
    07:00 -16°C° 0 mm 2 m/s 756 mmHg 91%
    08:00 -16°C° 0 mm 2 m/s 756 mmHg 92%
    09:00 -15°C° 0 mm 2 m/s 756 mmHg 86%
    10:00 -14°C° 0 mm 2 m/s 756 mmHg 81%
    11:00 -11°C° 0 mm 1 m/s 755 mmHg 75%
    12:00 -11°C° 0 mm 1 m/s 755 mmHg 73%
    13:00 -10°C° 0 mm 1 m/s 755 mmHg 71%
    14:00 -10°C° 0 mm 1 m/s 754 mmHg 68%
    15:00 -10°C° 0 mm 1 m/s 754 mmHg 70%
    16:00 -10°C° 0 mm 1 m/s 754 mmHg 71%
    17:00 -10°C° 0 mm 1 m/s 754 mmHg 73%
    18:00 -11°C° 0 mm 1 m/s 753 mmHg 78%
    19:00 -11°C° 0 mm 1 m/s 753 mmHg 83%
    20:00 -12°C° 0 mm 1 m/s 753 mmHg 87%
    21:00 -13°C° 0 mm 1 m/s 753 mmHg 89%
    22:00 -13°C° 0 mm 1 m/s 753 mmHg 91%
    23:00 -14°C° 0 mm 1 m/s 753 mmHg 92%
    Mostrar mais